Nenana, AK

9:07 AM AKDT on October 19, 2017 (GMT -0800)
Nenana Municipal

Weather History for PANN - February, 2013

Change the Weather History Date:

Wednesday, February 27, 2013

  Actual Average Record
Temperature  
Mean Temperature 24 °F -  
Max Temperature 44 °F 15 °F 62 °F (1992)
Min Temperature 3 °F -10 °F -31 °F (2007)
Degree Days  
Heating Degree Days 42    
Moisture  
Dew Point 10 °F    
Average Humidity 60    
Maximum Humidity 84    
Minimum Humidity 47    
Precipitation  
Precipitation 0.04 in - - ()
Sea Level Pressure  
Sea Level Pressure 29.43 in    
Wind  
Wind Speed 10 mph (ENE)    
Max Wind Speed 21 mph    
Max Gust Speed 22 mph    
Visibility 10 miles    
Events Rain    
Averages and records for this station are not official NWS values.
T = Trace of Precipitation, MM = Missing Value Source: NWS Daily Summary

Daily Weather History Graph

Daily Weather History Graph

Search for Another Location

Airport or City:

Trip Planner

Search our weather history database for the weather conditions in past years. The results will help you decide how hot, cold, wet, or windy it might be!

Date:

Astronomy

Feb. 27, 2013 Rise Set
Actual Time 8:10 AM AKST 6:08 PM AKST
Civil Twilight 7:21 AM AKST 6:58 PM AKST
Nautical Twilight 6:25 AM AKST 7:54 PM AKST
Astronomical Twilight 5:28 AM AKST 8:51 PM AKST
Moon 9:57 PM AKST (2/27) 7:49 AM AKST (2/27)
Length of Visible Light 11h 36m
Length of Day
9h 58m
Waning Gibbous, 95% of the Moon is Illuminated
Feb 27
Waning Gibbous
Mar 4
Last Quarter
Mar 11
New
Mar 19
First Quarter
Mar 27
Full

Hourly Weather History & Observations

Time (AKST) Temp. Windchill Dew Point Humidity Pressure Visibility Wind Dir Wind Speed Gust Speed Precip Events Conditions
12:53 AM 21.9 °F 9.8 °F 8.1 °F 55% 29.47 in 10.0 mi ENE 12.7 mph - N/A   Clear
1:53 AM 21.9 °F 11.0 °F 8.1 °F 55% 29.46 in 10.0 mi ENE 10.4 mph 20.7 mph N/A   Clear
3:53 AM 19.9 °F 6.2 °F 7.0 °F 57% 29.43 in 10.0 mi ENE 15.0 mph 21.9 mph N/A   Clear
4:53 AM 21.0 °F 8.1 °F 7.0 °F 55% 29.43 in 10.0 mi ENE 13.8 mph 21.9 mph N/A   Clear
5:53 AM 19.9 °F 13.4 °F 7.0 °F 57% 29.42 in 10.0 mi Variable 4.6 mph - N/A   Clear
6:53 AM 5.0 °F -2.1 °F -2.0 °F 73% 29.41 in 10.0 mi WNW 3.5 mph - N/A   Clear
7:53 AM 3.9 °F - -2.0 °F 76% 29.40 in 10.0 mi Calm Calm - N/A   Clear
8:53 AM 3.9 °F - -2.9 °F 73% 29.39 in 10.0 mi Calm Calm - N/A   Clear
9:53 AM 10.0 °F 3.6 °F -0.0 °F 64% 29.39 in 10.0 mi WNW 3.5 mph - N/A   Clear
10:53 AM 23.0 °F 13.9 °F 8.1 °F 53% 29.38 in 10.0 mi ENE 8.1 mph 19.6 mph N/A   Clear
11:53 AM 24.1 °F 12.5 °F 9.0 °F 53% 29.37 in 10.0 mi East 12.7 mph - N/A   Clear
12:53 PM 25.0 °F 13.6 °F 9.0 °F 51% 29.36 in 10.0 mi East 12.7 mph 20.7 mph N/A   Clear
1:53 PM 27.0 °F 16.7 °F 10.0 °F 49% 29.35 in 10.0 mi East 11.5 mph 21.9 mph N/A   Clear
2:53 PM 28.0 °F 16.5 °F 10.9 °F 49% 29.33 in 10.0 mi East 15.0 mph 21.9 mph N/A   Clear
3:53 PM 28.9 °F 19.8 °F 10.9 °F 47% 29.32 in 10.0 mi ENE 10.4 mph 17.3 mph N/A   Clear
4:53 PM 28.9 °F 18.2 °F 12.0 °F 49% 29.31 in 10.0 mi ENE 13.8 mph - N/A   Clear
5:53 PM 28.0 °F 17.5 °F 10.9 °F 49% 29.31 in 10.0 mi ENE 12.7 mph - N/A   Clear
6:53 PM 27.0 °F 16.7 °F 10.9 °F 51% 29.31 in 10.0 mi ENE 11.5 mph - N/A   Clear
7:53 PM 27.0 °F 16.1 °F 10.9 °F 51% 29.32 in 10.0 mi ENE 12.7 mph 20.7 mph N/A   Clear
8:53 PM 26.1 °F 16.2 °F 10.0 °F 51% 29.33 in 10.0 mi ENE 10.4 mph 16.1 mph N/A   Clear
9:53 PM 10.9 °F 4.7 °F 1.9 °F 67% 29.35 in 10.0 mi West 3.5 mph - N/A   Clear
10:53 PM 8.1 °F -0.5 °F 1.0 °F 73% 29.36 in 10.0 mi Variable 4.6 mph - N/A   Clear
11:53 PM 3.9 °F - -0.9 °F 80% 29.38 in 10.0 mi Calm Calm - N/A   Clear